星链-35940(STARLINK-35940)

导读 | 豆包AI

STARLINK-35940是美国SpaceX星链星座的卫星,于2025年11月23日发射升空,星链星座旨在为全球提供高速低延迟互联网覆盖,尤其服务偏远地区与网络基础设施薄弱区域。该卫星继承了星链设计特点,将与同星座其他卫星协同,进一步拓展星座服务能力,支撑全球互联网络建设。

基本信息
目录编号:
66617
目录名称:
STARLINK-35940
国际标识:
2025-271A
轨道中心:
EARTH
卫星名称:
星链-35940
卫星全名:
星链-35940(STARLINK-35940)
卫星状态:
在轨 (已飞行111 天)
发射日期:
2025-11-23 UTC
国别 :
美国 (US)
星等 :
--
轨道信息
数据来源 国际轨道数据 AOE轨道数据
星历时间 2026-03-14T04:41:27+0800
12小时前
查看轨道信息
2026-03-14T03:00:00+0800
13小时前
查看轨道信息
半长轴 6853.347km 6853.32km
偏心率 0.0001562 0.0001554
轨道倾角 53.160° 53.159°
近地点辐角 108.659° 66.783°
升交点赤经 120.686° 121.024°
平近点角 251.458° 264.993°
近地点 474.139km 474.117km
远地点 476.281km 476.249km
周期 94.105分钟 94.105分钟
每日圈数 15.30202 15.30211
详细信息
固有亮度:
5
最大亮度:
2.5
卫星平台:
Starlink V1.0
覆盖范围:
全球
运营商:
太空探索技术公司
运营商所在国:
美国
制造商(研发单位):
太空探索技术公司
制造商所在国:
美国
使用方式:
暂无
卫星简介
Starlink 计划是 SpaceX 推出的全球卫星互联网项目,通过发射低轨道卫星,为全球尤其是偏远地区提供高速、低延迟的互联网服务。自 2019 年起,Starlink 已部署数千颗卫星,旨在缩小全球数字鸿沟,推动互联网普及。该项目还为军事、航空等行业提供通信支持,带来广泛经济效益。
2D轨道图
3D轨道图
轨道高度分析图
轨道倾角分析图
轨道综合分析图
查看轨道综合分析图